TimeEST,TemperatureF,Dew PointF,Humidity,Sea Level PressureIn,VisibilityMPH,Wind Direction,Wind SpeedMPH,Gust SpeedMPH,PrecipitationIn,Events,Conditions,WindDirDegrees,DateUTC
12:53 AM,66.0,60.1,81,30.04,10.0,SW,11.5,-,N/A,,Mostly Cloudy,220,2013-03-06 05:53:00
1:53 AM,66.0,61.0,84,30.02,10.0,SW,10.4,-,N/A,,Mostly Cloudy,220,2013-03-06 06:53:00
2:53 AM,66.0,62.1,87,30.00,10.0,SW,11.5,-,0.00,,Overcast,220,2013-03-06 07:53:00
3:53 AM,66.9,63.0,87,29.99,10.0,WSW,11.5,-,0.00,,Overcast,240,2013-03-06 08:53:00
4:37 AM,66.2,62.6,88,29.98,10.0,WSW,10.4,-,N/A,,Overcast,240,2013-03-06 09:37:00
4:53 AM,62.1,57.0,84,30.01,10.0,North,-9999.0,-,N/A,,Overcast,0,2013-03-06 09:53:00
5:09 AM,60.8,55.4,82,30.02,10.0,NNW,17.3,26.5,0.00,Rain,Light Rain,330,2013-03-06 10:09:00
5:28 AM,60.8,55.4,82,30.03,10.0,NNW,23.0,29.9,0.00,,Overcast,330,2013-03-06 10:28:00
5:53 AM,57.9,50.0,75,30.06,10.0,NNW,18.4,28.8,0.00,,Overcast,340,2013-03-06 10:53:00
6:02 AM,57.2,48.2,72,30.07,10.0,NNW,23.0,29.9,N/A,,Overcast,340,2013-03-06 11:02:00
6:53 AM,54.0,41.0,62,30.09,10.0,NNW,23.0,34.5,N/A,,Mostly Cloudy,340,2013-03-06 11:53:00
7:53 AM,54.0,39.9,59,30.12,10.0,North,19.6,29.9,N/A,,Partly Cloudy,350,2013-03-06 12:53:00
8:53 AM,55.9,39.9,55,30.14,10.0,North,17.3,27.6,N/A,,Clear,350,2013-03-06 13:53:00
9:53 AM,59.0,39.9,49,30.15,10.0,NNW,23.0,31.1,N/A,,Clear,330,2013-03-06 14:53:00
10:53 AM,60.1,39.0,46,30.16,10.0,NW,24.2,29.9,N/A,,Clear,320,2013-03-06 15:53:00
11:53 AM,61.0,37.0,41,30.14,10.0,NW,19.6,28.8,N/A,,Clear,320,2013-03-06 16:53:00
12:53 PM,61.0,37.9,42,30.11,10.0,NNW,20.7,26.5,N/A,,Clear,330,2013-03-06 17:53:00
1:53 PM,61.0,37.9,42,30.10,10.0,NNW,19.6,27.6,N/A,,Clear,330,2013-03-06 18:53:00
2:53 PM,60.1,37.9,44,30.09,10.0,NW,19.6,27.6,N/A,,Clear,320,2013-03-06 19:53:00
3:53 PM,60.1,37.9,44,30.08,10.0,NW,16.1,25.3,N/A,,Clear,310,2013-03-06 20:53:00
4:53 PM,59.0,37.9,46,30.08,10.0,NW,18.4,26.5,N/A,,Clear,310,2013-03-06 21:53:00
5:53 PM,57.0,37.9,49,30.08,10.0,NW,17.3,25.3,N/A,,Clear,310,2013-03-06 22:53:00
6:53 PM,55.0,39.0,55,30.10,10.0,NW,13.8,-,N/A,,Clear,310,2013-03-06 23:53:00
7:53 PM,55.0,39.0,55,30.11,10.0,NW,17.3,20.7,N/A,,Clear,310,2013-03-07 00:53:00
8:53 PM,55.0,39.9,57,30.12,10.0,NW,18.4,-,N/A,,Clear,320,2013-03-07 01:53:00
9:53 PM,55.9,41.0,57,30.15,10.0,NW,13.8,24.2,N/A,,Clear,320,2013-03-07 02:53:00
10:53 PM,55.9,39.0,53,30.16,10.0,NNW,11.5,-,N/A,,Clear,340,2013-03-07 03:53:00
11:53 PM,55.0,39.0,55,30.16,10.0,North,13.8,20.7,N/A,,Clear,350,2013-03-07 04:53:00